{"data":{"norad_id":54009,"intl_designator":"2022-125AX","name":"STARLINK-5099","alt_names":[],"object_type":"PAYLOAD","status":"ACTIVE","operator":null,"country":"US","launch_date":"2022-10-05","launch_site_code":"AFWTR","launch_vehicle":null,"mission":null,"orbit_class":"UNKNOWN","rcs_meters":null,"size_class":null,"mass_kg":null,"dimensions":null,"purposes":["comms"],"wikipedia_slug":null,"has_3d_model":false,"image_url":null,"decayed_at":null,"tle_current":{"epoch":"2026-09-20T16:47:02.194944Z","epoch_age_seconds":69681,"freshness":"FRESH","line1":"1 54009U 22125AX  26263.69933096  .00000809  00000+0  35093-4 0  9994","line2":"2 54009  53.1602  50.9280 0001042  83.8990 276.2132 15.34393586219007","mean_motion":15.34393586,"eccentricity":0.0001042,"inclination_deg":53.1602,"raan_deg":50.928,"arg_perigee_deg":83.899,"mean_anomaly_deg":276.2132,"bstar":3.5093e-5,"rev_number":21900,"period_min":93.848150379325,"perigee_km":462.00948649372,"apogee_km":463.43512157268,"semimajor_km":6840.8593040332,"source":"CELESTRAK","updated_at":"2026-09-21T09:00:33.074170Z"}}}